Location: Willingham
(52.3167°N, 0.0667°E)
Time: 12:58:06
(UTC+00:00)

Cosmos 1238 Rocket - Pass Details

Date: 19 May 2025
Orbit: 356 x 779 km, 82.9° (Epoch: 11 June)

Event Time Altitude Azimuth Distance (km) Brightness Sun altitude
Exits shadow 21:22:58 15° 152° (SSE) 1,389 4.2 -10.4°
Maximum altitude 21:25:28 33° 94° (E) 791 3.3 -10.6°
Drops below altitude 10° 21:28:29 10° 28° (NNE) 1,525 5.4 -10.9°
Sets 21:30:30 0° 19° (NNE) 2,340 6.6 -11.1°
